Regional Weather Roundup
Issued by NWS

Home | Current Version | Previous Version | Text Only | Print | Product List | Glossary Off
Versions: 1 2 3 4 5 6 7 8 9 10 11 12 13 14 15 16 17 18 19 20 21 22 23 24 25 26 27 28 29 30 31 32 33 34 35 36 37 38 39 40 41 42 43 44 45 46 47 48 49 50

000
ASUS43 KMKX 301200
RWRWI

WISCONSIN REGIONAL WEATHER ROUNDUP
NATIONAL WEATHER SERVICE MILWAUKEE/SULLIVAN WI
700 AM CDT THU MAR 30 2017

NOTE: "FAIR" INDICATES FEW OR NO CLOUDS BELOW 12,000 FEET WITH NO
SIGNIFICANT WEATHER AND/OR OBSTRUCTIONS TO VISIBILITY.

WIZ001-002-006>008-014>016-023>028-301300-
NORTHWEST WISCONSIN

CITY           SKY/WX    TMP DP  RH WIND       PRES   REMARKS
SUPERIOR ARPT  CLOUDY    33  32  95 NE9       30.06F WCI  26
ASHLAND        CLOUDY    31  29  92 CALM      30.05F
6HR MIN TEMP:  29; 6HR MAX TEMP:  31;

HAYWARD        CLOUDY    36  26  67 NE6       30.01F WCI  31
6HR MIN TEMP:  32; 6HR MAX TEMP:  36;

SIREN          CLOUDY    33  29  85 CALM      30.01S
CUMBERLAND     CLOUDY    36  28  75 NE8       29.98S WCI  29
RICE LAKE      CLOUDY    38  30  72 CALM      29.99F
6HR MIN TEMP:  38; 6HR MAX TEMP:  40;

CHETEK         CLOUDY    37  29  72 E5        29.98F WCI  34
LADYSMITH      CLOUDY    37  29  73 NE7       30.00F WCI  32
EAU CLAIRE     NOT AVBL
MENOMONIE      CLOUDY    37  34  89 NE10      29.96F WCI  30
6HR MIN TEMP:  37; 6HR MAX TEMP:  40; 6HR PCP:  0.01;

NEW RICHMOND   CLOUDY    37  33  84 E13       29.97S FOG     WCI  29
OSCEOLA        CLOUDY    39  33  79 NE8       30.00S WCI  33
$$

WIZ003>005-009-010-017-018-301300-
NORTH CENTRAL WISCONSIN

CITY           SKY/WX    TMP DP  RH WIND       PRES   REMARKS
MANITOWISH WTR CLOUDY    33  26  76 E3        30.02S
ARBOR VITAE    CLOUDY    36  29  75 E6        30.01F WCI  32
WOODRUFF       CLOUDY    36  29  75 E6        30.01F WCI  32
RHINELANDER    CLOUDY    34  27  75 E10       30.02S WCI  26
6HR MIN TEMP:  34; 6HR MAX TEMP:  36;

EAGLE RIVER    CLOUDY    32  26  77 E7        30.03F WCI  26
LAND O LAKES   CLOUDY    32  27  79 E7        30.04F WCI  26
PHILLIPS       CLOUDY    34  29  82 E5        29.99F WCI  30
6HR MIN TEMP:  34; 6HR MAX TEMP:  37;

TOMAHAWK       CLOUDY    33  26  76 NE5       30.01F WCI  29
MEDFORD        CLOUDY    32  31  93 E10       29.97R WCI  24
MERRILL        CLOUDY    33  31  92 E8        30.00S WCI  27
$$

WIZ029-030-035-036-043>047-301300-
CENTRAL WISCONSIN

CITY           SKY/WX    TMP DP  RH WIND       PRES   REMARKS
WAUSAU         CLOUDY    33  31  92 E10       29.97S WCI  25
6HR MIN TEMP:  32; 6HR MAX TEMP:  35; 6HR PCP: TRACE;

MOSINEE        CLOUDY    34  34 100 NE14      29.97F WCI  24
MARSHFIELD     CLOUDY    34  32  92 E13       29.95R WCI  25
6HR MIN TEMP:  34; 6HR MAX TEMP:  35; 6HR PCP: TRACE;

STEVENS POINT  CLOUDY    32  32 100 E12G18    29.98R WCI  23
WAUPACA        LGT RAIN  36  35  93 NE8       29.98F WCI  30
WAUTOMA        LGT RAIN  34  33  96 NE15      29.95F WCI  24
6HR MIN TEMP:  34; 6HR MAX TEMP:  36; 6HR PCP:  0.07;

WISC RAPIDS    CLOUDY    35  35 100 E16G22    29.96S WCI  25
6HR MIN TEMP:  34; 6HR MAX TEMP:  35; 6HR PCP:  0.08;

CAMP DOUGLAS   MIX PCPN  36  34  93 E14       29.92R WCI  27
$$

WIZ011>013-019>022-031-037>040-048>050-301300-
NORTHEAST WISCONSIN

CITY           SKY/WX    TMP DP  RH WIND       PRES   REMARKS
ANTIGO         FLURRIES  31  31  97 E10G18    30.00F WCI  23
SHAWANO        LGT RAIN  36  33  90 E12       30.03S WCI  28
6HR MIN TEMP:  35; 6HR MAX TEMP:  37;

OCONTO         CLOUDY    33  31  91 NE7       30.06S WCI  27
STURGEON BAY   LGT RAIN  35  30  82 E8        30.09R WCI  29
6HR MIN TEMP:  34; 6HR MAX TEMP:  37;

GREEN BAY      FLURRIES  35  34  96 NE14      30.02F WCI  26
6HR MIN TEMP:  35; 6HR MAX TEMP:  37; 6HR PCP:  0.02;

MANITOWOC      LGT RAIN  36  32  87 E14G20    30.00F WCI  27
APPLETON       LGT RAIN  34  34 100 E12G18    29.97F WCI  25
CLINTONVILLE   LGT SNOW  32  32 100 E13       30.01S WCI  22
OSHKOSH        MIX PCPN  35  31  85 E15G25    29.95F WCI  25
6HR MIN TEMP:  34; 6HR MAX TEMP:  38; 6HR PCP:  0.08;

$$

WIZ032>034-041-042-053>061-301300-
SOUTHWEST WISCONSIN

CITY           SKY/WX    TMP DP  RH WIND       PRES   REMARKS
LA CROSSE      CLOUDY    39  36  89 E15       29.88F FOG     WCI  31
6HR MIN TEMP:  39; 6HR MAX TEMP:  40; 6HR PCP:  0.08;

SPARTA         CLOUDY    36  35  96 E15G23    29.91S WCI  27
VIROQUA        CLOUDY    37  37  99 E16G22    29.85S WCI  27
6HR MIN TEMP:  35; 6HR MAX TEMP:  37;

BOSCOBEL       CLOUDY    41  41 100 E8        29.84S
6HR MIN TEMP:  39; 6HR MAX TEMP:  42; 6HR PCP:  0.07;

PRAIRIE DU CHI LGT RAIN  38  38  97 NE7       29.82S WCI  33
PLATTEVILLE    CLOUDY    40  39  99 E20G26    29.78F WCI  30
$$

WIZ056-057-062-063-064-067-068-301300-
SOUTH CENTRAL WISCONSIN

CITY           SKY/WX    TMP DP  RH WIND       PRES   REMARKS
REEDSBURG      CLOUDY    36  36 100 NE15G22   29.87F WCI  27
6HR MIN TEMP:  35; 6HR MAX TEMP:  37; 6HR PCP:  0.04;

BARABOO/DELLS  CLOUDY    36  35  95 E15       29.88F WCI  27
LONE ROCK      NOT AVBL
MINERAL POINT  LGT RAIN  39  39 100 E16G23    29.81R WCI  30
MADISON        LGT RAIN  37  35  92 E16       29.86F WCI  28
6HR MIN TEMP:  37; 6HR MAX TEMP:  39; 6HR PCP:  0.17;

MIDDLETON      CLOUDY    39  39 100 E16       29.86F WCI  30
WATERTOWN      LGT RAIN  37  37 100 E16       29.88F WCI  27
MONROE         DRIZZLE   37  36  93 E16G26    29.78F WCI  28
JANESVILLE     LGT RAIN  39  39 100 E15G21    29.82F WCI  31
$$

WIZ051-052-058>065-066-070>072-301300-
SOUTHEAST WISCONSIN

CITY           SKY/WX    TMP DP  RH WIND       PRES   REMARKS
MILWAUKEE      LGT RAIN  38  34  85 E18       29.89F WCI  28
6HR MIN TEMP:  37; 6HR MAX TEMP:  40; 6HR PCP:  0.49;

WAUKESHA       LGT RAIN  36  34  93 E17G29    29.90F WCI  25
MILWAUKEE/TIMM LGT RAIN  36  30  80 E12G20    29.92F WCI  27
RACINE         LGT RAIN  37  35  92 E16G24    29.89F WCI  28
6HR MIN TEMP:  37; 6HR MAX TEMP:  39; 6HR PCP:  0.59;

KENOSHA        LGT RAIN  38  36  92 E20       29.86F FOG     WCI  28
6HR MIN TEMP:  38; 6HR MAX TEMP:  39; 6HR PCP:  0.53;

FOND DU LAC    LGT RAIN  35  30  82 E13       29.95F WCI  26
6HR MIN TEMP:  35; 6HR MAX TEMP:  39; 6HR PCP:  0.04;

SHEBOYGAN      FLURRIES  34  31  88 E15       29.98S WCI  24
6HR MIN TEMP:  34; 6HR MAX TEMP:  39; 6HR PCP:  0.16;

WEST BEND      LGT RAIN  34  34 100 E17       29.93F WCI  23
JUNEAU         LGT RAIN  34  33  94 NE15      29.92F WCI  24
$$

LSZ147-162-301300-
LAKE SUPERIOR

STATION/POSITION TIME  TEMP    WIND        PRES    WAVE
                       AIR SEA DIR/SP/G            HT/PER
                 (UTC) (F)     (DEG/KT/KT) (MB)    (FT/S)
DEVILS ISLAND    1100   34      80/  7/  7 1019.3F
PORT WING        1140   34      40/ 10/ 12 1017.9F
SAXON HARBOR     1140   31      CALM  /  2 1017.6F
$$

LMZ867-665-643>646-301300-
LAKE MICHIGAN

STATION/POSITION TIME  TEMP    WIND        PRES    WAVE
                       AIR SEA DIR/SP/G            HT/PER
                 (UTC) (F)     (DEG/KT/KT) (MB)    (FT/S)
CHAMBERS ISLAND  1140   34      50/  9/ 12 1018.3F
NORTHPORT PIER   1140   34      70/ 11/ 14 1019.0F
SISTER BAY       1106   36     110/ 10/ 16   N/A
KEWAUNEE LAKESHO 1130   35      60/  8/ 13 1016.9F
SHEBOYGAN LAKESH 1100   36      60/ 23/ 26 1015.4F
PORT WASHINGTON  1130   37      70/ 15/ 18 1015.2F
MILWAUKEE LAKESH 1130   37      70/ 19/ 24   N/A
KENOSHA   LAKESH 1100   38      80/ 17/ 21 1012.9
$$

TC  - TEMPERATURE IN CELSIUS
VSB - VISIBILITY IN STATUTE MILES
WCI - WIND CHILL INDEX
HX  - HEAT INDEX





USA.gov is the U.S. government's official web portal to all federal, state and local government web resources and services.